Flag for Canada Weather past 2 weeks in Qikiqtarjuaq, Nunavut Territory, Canada

Now
14 °F

Passing clouds.


Feels Like: 6 °F
Forecast: 11 / 15 °F
Wind: 5 mph from South

Location: Broughton Island Airport

Current Time: Oct 26, 2014 at 2:59:04 AM

Latest Report: Oct 26, 2014 at 2:00 AM


Visibility: 9 mi

Pressure: 30.12 "Hg

Humidity: 73%

Dew point: 7 °F

Location of QikiqtarjuaqLocation

Historic Weather in Qikiqtarjuaq — Graph

°F

Qikiqtarjuaq temperature yesterday

Maximum temperature yesterday: 21 °F (at 9:00 AM)
Minimum temperature yesterday: 12 °F (at 8:00 PM)
Average temperature yesterday: 18 °F

Past Weeks' High & Low Weather Summary

 TemperatureHumidityPressure
High36 °F (Oct 11, 1:00 PM)100% (Oct 11, 6:00 PM)30.12 "Hg (Oct 11, 6:00 PM)
Low12 °F (Oct 25, 8:00 PM)41% (Oct 23, 5:00 PM)29.36 "Hg (Oct 12, 2:59 AM)
Average26 °F77%29.78 "Hg
* Reported Oct 11 2:00 AM — Oct 26 2:00 AM, Qikiqtarjuaq, Weather by CustomWeather, © 2014

Note: Actual official high and low records may vary slightly from our data, if they occured in-between our weather recording intervals... More about our weather records

Advertising

Qikiqtarjuaq weather history for previous 24 hours

 ConditionsComfort  
Time TempWeatherWind HumidityBarometerVisibility
2:00 AM
Oct 26
14 °FPassing clouds.5 mph73%30.12 "Hg9 mi
1:00 AM14 °FOvercast.6 mph73%30.11 "Hg9 mi
12:00 AM12 °FPassing clouds.6 mph79%30.11 "Hg9 mi
11:00 PM
Oct 25
16 °FMostly cloudy.5 mph73%30.11 "Hg9 mi
10:00 PM18 °FOvercast.12 mph68%30.11 "Hg9 mi
9:00 PM18 °FPassing clouds.10 mph73%30.11 "Hg9 mi
8:00 PM12 °FClear.6 mph79%30.11 "Hg9 mi
7:00 PM14 °FClear.6 mph79%30.11 "Hg9 mi
6:00 PM16 °FClear.5 mph73%30.11 "Hg9 mi
5:00 PM21 °FBroken clouds.7 mph68%30.11 "Hg15 mi
4:00 PM21 °FMore clouds than sun.7 mph74%30.11 "Hg15 mi
3:00 PM19 °FPartly sunny.3 mph73%30.10 "Hg15 mi
2:00 PM18 °FLight snow. Partly sunny.5 mph79%30.08 "Hg10 mi
1:00 PM19 °FLight snow. Partly sunny.3 mph73%30.07 "Hg10 mi
12:00 PM19 °FLight snow. Partly sunny.6 mph79%30.08 "Hg10 mi
11:00 AM19 °FLight snow. Overcast.3 mph73%30.07 "Hg10 mi
10:00 AM19 °FLight snow. Overcast.7 mph73%30.07 "Hg8 mi
9:00 AM21 °FOvercast.9 mph63%30.06 "Hg15 mi
8:00 AM18 °FOvercast.No wind62%30.06 "Hg15 mi
7:50 AM18 °FLight snow. Overcast.2 mph62%30.06 "Hg9 mi
7:00 AM18 °FMostly cloudy.3 mph58%30.05 "Hg9 mi
6:00 AM18 °FOvercast.12 mph62%30.04 "Hg9 mi
5:00 AM18 °FOvercast.12 mph58%30.04 "Hg9 mi
4:00 AM16 °FPassing clouds.5 mph57%30.04 "Hg9 mi
3:00 AM18 °FPassing clouds.10 mph68%30.04 "Hg9 mi
2:00 AM18 °FOvercast.15 mph62%30.02 "Hg9 mi
Weather by CustomWeather, © 2014

See weather overviewHow to use our weather pages